G6UYG-13 Weather Reports


time (UTC)temp
C
wind
direction
speed
KPH
gust
KPH
rain 1hr
cm
rain 24hr
cm
rain mn
cm
humidity
%
barometer
mb
20260508100620 15 61 3.2 6.4 0.00 0.00 0.00 61 1014.4
20260508100244 15 154 3.2 8.0 0.00 0.00 0.00 59 1014.5
20260508095920 15 154 3.2 8.0 0.00 0.00 0.00 59 1014.5
20260508095220 15 157 3.2 11.3 0.00 0.00 0.00 61 1014.5
20260508094520 15 91 1.6 4.8 0.00 0.00 0.00 66 1014.5
20260508093820 14 171 1.6 4.8 0.00 0.00 0.00 65 1014.6
20260508093120 13 188 1.6 3.2 0.00 0.00 0.00 69 1014.5
20260508092420 13 188 1.6 6.4 0.00 0.00 0.00 72 1014.6
20260508091720 13 188 1.6 6.4 0.00 0.00 0.00 72 1014.6
20260508091020 12 165 1.6 6.4 0.00 0.00 0.00 76 1014.5
20260508090320 12 175 1.6 3.2 0.00 0.00 0.00 76 1014.5
20260508085620 12 134 1.6 0.0 0.00 0.00 0.00 79 1014.4
20260508085006 11 207 0.0 1.6 0.00 0.00 0.00 80 1014.4
20260508084920 11 207 0.0 1.6 0.00 0.00 0.00 80 1014.4
20260508084318 11 207 0.0 1.6 0.00 0.00 0.00 81 1014.4
20260508084220 11 207 0.0 1.6 0.00 0.00 0.00 81 1014.4
20260508083520 11 171 0.0 0.0 0.00 0.00 0.00 81 1014.4
20260508082820 11 171 0.0 4.8 0.00 0.00 0.00 81 1014.3
20260508082120 11 190 0.0 1.6 0.00 0.00 0.00 81 1014.3
20260508081420 11 178 0.0 1.6 0.00 0.00 0.00 81 1014.4
20260508080720 11 178 0.0 3.2 0.00 0.00 0.00 82 1014.4
20260508080020 11 178 0.0 1.6 0.00 0.00 0.00 84 1014.4
20260508075320 11 178 0.0 1.6 0.00 0.00 0.00 85 1014.3
20260508074620 11 196 1.6 4.8 0.00 0.00 0.00 86 1014.4
20260508073920 10 194 1.6 4.8 0.00 0.00 0.00 87 1014.4
20260508073220 10 200 0.0 3.2 0.00 0.00 0.00 89 1014.3
20260508072520 10 204 0.0 0.0 0.00 0.00 0.00 90 1014.3
20260508071820 10 204 0.0 0.0 0.00 0.00 0.00 90 1014.2
20260508071121 9 204 0.0 0.0 0.00 0.00 0.00 91 1014.2
20260508070421 9 204 0.0 0.0 0.00 0.00 0.00 91 1014.2
20260508065721 9 204 0.0 0.0 0.00 0.00 0.00 92 1014.1
20260508065021 8 204 0.0 0.0 0.00 0.00 0.00 92 1014.0
20260508064321 8 204 0.0 0.0 0.00 0.00 0.00 92 1014.1
20260508063621 8 204 0.0 0.0 0.00 0.00 0.00 92 1014.0
20260508062921 8 204 0.0 0.0 0.00 0.00 0.00 92 1014.0
20260508062221 8 204 0.0 0.0 0.00 0.00 0.00 92 1013.9
20260508061521 8 204 0.0 0.0 0.00 0.00 0.00 92 1013.8
20260508060821 8 204 0.0 0.0 0.00 0.00 0.00 92 1013.8
20260508060121 8 204 0.0 0.0 0.00 0.00 0.00 92 1013.8
20260508055421 7 204 0.0 0.0 0.00 0.00 0.00 92 1013.8
20260508054721 7 204 0.0 0.0 0.00 0.00 0.00 93 1013.8
20260508054021 7 204 0.0 0.0 0.00 0.00 0.00 93 1013.7
20260508053321 7 204 0.0 0.0 0.00 0.00 0.00 92 1013.6
20260508052621 7 204 0.0 0.0 0.00 0.00 0.00 92 1013.6
20260508051921 7 204 0.0 0.0 0.00 0.00 0.00 92 1013.5
20260508051221 7 204 0.0 0.0 0.00 0.00 0.00 92 1013.6
20260508050521 7 204 0.0 0.0 0.00 0.00 0.00 92 1013.5
20260508045821 7 204 0.0 0.0 0.00 0.00 0.00 92 1013.4
20260508045121 7 204 0.0 0.0 0.00 0.00 0.00 92 1013.5
20260508044421 7 204 0.0 0.0 0.00 0.00 0.00 92 1013.4
20260508043721 7 204 0.0 0.0 0.00 0.00 0.00 92 1013.3
20260508043021 7 204 0.0 0.0 0.00 0.00 0.00 92 1013.3
20260508042321 7 204 0.0 0.0 0.00 0.00 0.00 92 1013.4
20260508041621 7 204 0.0 0.0 0.00 0.00 0.00 92 1013.4
20260508040921 7 204 0.0 0.0 0.00 0.00 0.00 92 1013.4
20260508040221 7 204 0.0 0.0 0.00 0.00 0.00 92 1013.4
20260508035521 7 204 0.0 0.0 0.00 0.00 0.00 92 1013.4
20260508034821 7 204 0.0 0.0 0.00 0.00 0.00 92 1013.4
20260508034121 7 204 0.0 0.0 0.00 0.00 0.00 92 1013.3
20260508033421 7 204 0.0 0.0 0.00 0.00 0.00 92 1013.3
20260508032721 7 204 0.0 0.0 0.00 0.00 0.00 92 1013.3
20260508032021 7 204 0.0 0.0 0.00 0.00 0.00 92 1013.3
20260508031321 7 204 0.0 0.0 0.00 0.00 0.00 92 1013.3
20260508030621 7 204 0.0 0.0 0.00 0.00 0.00 92 1013.3
20260508025921 7 204 0.0 0.0 0.00 0.00 0.00 92 1013.3
20260508025221 7 204 0.0 0.0 0.00 0.00 0.00 92 1013.2
20260508024521 7 204 0.0 0.0 0.00 0.00 0.00 92 1013.3
20260508023821 7 204 0.0 0.0 0.00 0.00 0.00 92 1013.3
20260508023122 7 204 0.0 0.0 0.00 0.00 0.00 92 1013.3
20260508022422 7 204 0.0 0.0 0.00 0.00 0.00 92 1013.3
20260508021722 7 204 0.0 0.0 0.00 0.00 0.00 92 1013.2
20260508021022 7 204 0.0 0.0 0.00 0.00 0.00 92 1013.2
20260508020322 7 204 0.0 0.0 0.00 0.00 0.00 92 1013.2
20260508015622 7 204 0.0 0.0 0.00 0.00 0.00 91 1013.2
20260508014922 7 204 0.0 0.0 0.00 0.00 0.00 91 1013.2
20260508014222 7 204 0.0 0.0 0.00 0.00 0.00 91 1013.3
20260508013522 7 204 0.0 0.0 0.00 0.00 0.00 91 1013.2
20260508012822 7 204 0.0 0.0 0.00 0.00 0.00 91 1013.3
20260508012122 7 204 0.0 0.0 0.00 0.00 0.00 91 1013.3
20260508011422 7 204 0.0 0.0 0.00 0.00 0.00 90 1013.3
20260508010722 7 204 0.0 0.0 0.00 0.00 0.00 90 1013.3
20260508010022 7 204 0.0 0.0 0.00 0.00 0.00 90 1013.3
20260508005322 7 204 0.0 0.0 0.00 0.00 0.00 90 1013.3
20260508004622 7 204 0.0 0.0 0.00 0.00 0.00 89 1013.3
20260508003922 7 204 0.0 0.0 0.00 0.00 0.00 89 1013.3
20260508003222 7 204 0.0 0.0 0.00 0.00 0.00 88 1013.3
20260508002522 7 204 0.0 0.0 0.00 0.00 0.00 88 1013.4
20260508001822 7 204 0.0 0.0 0.00 0.00 0.00 88 1013.5
20260508001122 7 204 0.0 0.0 0.00 0.00 0.00 88 1013.5
20260508000422 7 204 0.0 0.0 0.00 0.00 0.00 87 1013.4
20260507235722 8 204 0.0 0.0 0.00 0.00 0.00 88 1013.5
20260507235022 8 204 0.0 0.0 0.00 0.00 0.00 88 1013.4
20260507234322 8 204 0.0 0.0 0.00 0.00 0.00 87 1013.4
20260507233622 8 204 0.0 0.0 0.00 0.00 0.00 87 1013.3
20260507232922 8 204 0.0 0.0 0.00 0.00 0.00 86 1013.3
20260507232222 8 204 0.0 0.0 0.00 0.00 0.00 87 1013.3
20260507231522 8 204 0.0 0.0 0.00 0.00 0.00 86 1013.4
20260507230822 8 204 0.0 0.0 0.00 0.00 0.00 86 1013.4
20260507230122 8 204 0.0 0.0 0.00 0.00 0.00 86 1013.4
20260507225422 9 204 0.0 0.0 0.00 0.00 0.00 85 1013.4
20260507224722 9 204 0.0 0.0 0.00 0.00 0.00 86 1013.4
20260507224022 9 204 0.0 0.0 0.00 0.00 0.00 85 1013.4
20260507223322 9 204 0.0 0.0 0.00 0.00 0.00 85 1013.4
20260507222622 9 204 0.0 0.0 0.00 0.00 0.00 85 1013.4
20260507221922 10 204 0.0 0.0 0.00 0.00 0.00 84 1013.3
20260507221222 10 204 0.0 0.0 0.00 0.00 0.00 83 1013.3
20260507220522 10 204 0.0 0.0 0.00 0.00 0.00 83 1013.2
20260507215822 10 204 0.0 0.0 0.00 0.00 0.00 83 1013.3
20260507215122 10 204 0.0 0.0 0.00 0.00 0.00 82 1013.3
20260507214423 10 204 0.0 0.0 0.00 0.00 0.00 82 1013.3
20260507213723 10 204 0.0 0.0 0.00 0.00 0.00 81 1013.3
20260507213023 10 204 0.0 0.0 0.00 0.00 0.00 81 1013.3
20260507212323 10 204 0.0 0.0 0.00 0.00 0.00 80 1013.2
20260507211623 10 204 0.0 0.0 0.00 0.00 0.00 80 1013.2
20260507210923 10 204 0.0 0.0 0.00 0.00 0.00 80 1013.1
20260507210223 10 204 0.0 0.0 0.00 0.00 0.00 79 1013.1
20260507205523 10 204 0.0 0.0 0.00 0.00 0.00 79 1013.0
20260507204823 11 204 0.0 4.8 0.00 0.00 0.00 79 1013.0
20260507204123 11 194 0.0 3.2 0.00 0.00 0.00 79 1012.9
20260507203423 11 194 0.0 3.2 0.00 0.00 0.00 79 1012.9
20260507202723 11 198 0.0 0.0 0.00 0.00 0.00 79 1012.8
20260507202023 11 198 0.0 1.6 0.00 0.00 0.00 78 1012.8
20260507201323 11 200 0.0 0.0 0.00 0.00 0.00 79 1012.7
20260507200623 11 200 0.0 0.0 0.00 0.00 0.00 78 1012.6
20260507195923 11 200 0.0 0.0 0.00 0.00 0.00 78 1012.6
20260507195223 11 200 0.0 0.0 0.00 0.00 0.00 77 1012.5
20260507194523 11 200 0.0 0.0 0.00 0.00 0.00 77 1012.5
20260507193823 11 200 0.0 3.2 0.00 0.00 0.00 77 1012.5
20260507193123 11 188 0.0 6.4 0.00 0.00 0.00 77 1012.4
20260507192423 12 193 1.6 4.8 0.00 0.00 0.00 77 1012.4
20260507191723 12 201 1.6 4.8 0.00 0.00 0.00 77 1012.3
20260507191023 12 183 1.6 4.8 0.00 0.00 0.00 76 1012.2
20260507190323 12 180 0.0 9.7 0.00 0.00 0.00 76 1012.2
20260507185623 12 180 0.0 3.2 0.00 0.00 0.00 76 1012.2
20260507184923 12 183 1.6 9.7 0.00 0.00 0.00 75 1012.2
20260507184223 12 184 3.2 9.7 0.00 0.00 0.00 75 1012.2
20260507183523 12 221 3.2 14.5 0.00 0.00 0.00 74 1012.1
20260507182823 12 171 3.2 11.3 0.00 0.00 0.00 75 1012.1
20260507182123 12 205 1.6 9.7 0.00 0.00 0.00 74 1012.0
20260507181423 12 207 1.6 11.3 0.00 0.00 0.00 74 1012.1
20260507180723 12 178 1.6 4.8 0.00 0.00 0.00 75 1012.1
20260507180023 12 207 1.6 6.4 0.00 0.00 0.00 75 1012.1
20260507175323 12 217 1.6 8.0 0.00 0.00 0.00 75 1012.0
20260507174824 12 231 1.6 8.0 0.00 0.00 0.00 75 1012.0
20260507174623 12 231 1.6 8.0 0.00 0.00 0.00 75 1012.0
20260507173923 11 171 1.6 8.0 0.00 0.00 0.00 74 1012.1
20260507173223 11 190 3.2 8.0 0.00 0.00 0.00 74 1012.2
20260507172523 11 180 3.2 14.5 0.00 0.00 0.00 73 1012.1
20260507171823 11 185 1.6 12.9 0.00 0.00 0.00 74 1012.1
20260507171123 11 161 1.6 8.0 0.00 0.00 0.00 74 1012.1
20260507170423 11 185 1.6 6.4 0.00 0.00 0.00 74 1012.1
20260507165724 11 180 1.6 9.7 0.00 0.00 0.00 76 1012.1
20260507165024 11 174 3.2 14.5 0.00 0.00 0.00 77 1012.2
20260507164324 12 192 1.6 8.0 0.00 0.00 0.00 76 1012.1
20260507163624 12 188 3.2 8.0 0.00 0.00 0.00 76 1012.2
20260507163021 12 215 3.2 14.5 0.00 0.00 0.00 75 1012.2
20260507162924 12 215 3.2 14.5 0.00 0.00 0.00 75 1012.2
20260507162224 12 209 3.2 19.3 0.00 0.00 0.00 74 1012.2
20260507161524 13 184 6.4 16.1 0.00 0.00 0.00 70 1012.1
20260507161148 13 185 6.4 11.3 0.00 0.00 0.00 68 1012.1
20260507160824 13 185 6.4 11.3 0.00 0.00 0.00 68 1012.1
20260507160310 13 181 4.8 11.3 0.00 0.00 0.00 63 1012.0
20260507160124 13 181 4.8 11.3 0.00 0.00 0.00 63 1012.0
20260507155424 14 196 3.2 17.7 0.00 0.00 0.00 63 1012.0
20260507154724 14 211 3.2 12.9 0.00 0.00 0.00 61 1012.0
20260507154024 14 217 3.2 4.8 0.00 0.00 0.00 60 1011.9
20260507153958 15 202 3.2 8.0 0.00 0.00 0.00 60 1012.0
20260507153324 15 202 3.2 8.0 0.00 0.00 0.00 60 1012.0
20260507152624 15 217 1.6 9.7 0.00 0.00 0.00 59 1012.0
20260507152026 15 174 1.6 14.5 0.00 0.00 0.00 59 1012.1
20260507151924 15 174 1.6 14.5 0.00 0.00 0.00 59 1012.1
20260507151224 14 192 1.6 9.7 0.00 0.00 0.00 60 1012.0
20260507150524 14 211 1.6 4.8 0.00 0.00 0.00 60 1012.0
20260507145824 14 194 1.6 1.6 0.00 0.00 0.00 60 1012.1
20260507145124 14 187 1.6 6.4 0.00 0.00 0.00 59 1012.1
20260507144424 14 196 1.6 11.3 0.00 0.00 0.00 59 1012.2
20260507143724 15 138 1.6 6.4 0.00 0.00 0.00 58 1012.2
20260507143025 15 178 1.6 8.0 0.00 0.00 0.00 58 1012.3
20260507142324 15 203 1.6 9.7 0.00 0.00 0.00 59 1012.3
20260507141624 15 211 1.6 9.7 0.00 0.00 0.00 59 1012.4
20260507140924 15 232 1.6 6.4 0.00 0.00 0.00 59 1012.4
20260507140224 15 184 3.2 11.3 0.00 0.00 0.00 59 1012.6
20260507135524 15 176 3.2 6.4 0.00 0.00 0.00 59 1012.6
20260507134824 15 192 3.2 6.4 0.00 0.00 0.00 60 1012.6
20260507134124 15 188 4.8 11.3 0.00 0.00 0.00 58 1012.6
20260507133424 15 185 4.8 12.9 0.00 0.00 0.00 58 1012.7
20260507132724 15 157 4.8 12.9 0.00 0.00 0.00 56 1012.7
20260507132024 15 192 4.8 16.1 0.00 0.00 0.00 55 1012.8
20260507131324 15 236 4.8 6.4 0.00 0.00 0.00 54 1012.7
20260507130624 15 184 6.4 17.7 0.00 0.00 0.00 53 1012.7
20260507125924 16 242 4.8 14.5 0.00 0.00 0.00 53 1012.7
20260507125224 15 176 4.8 11.3 0.00 0.00 0.00 55 1012.6
20260507124524 15 178 3.2 14.5 0.00 0.00 0.00 53 1012.7
20260507123824 16 167 4.8 9.7 0.00 0.00 0.00 53 1012.7
20260507123124 16 168 6.4 20.9 0.00 0.00 0.00 53 1012.8
20260507122424 15 181 3.2 11.3 0.00 0.00 0.00 54 1012.8
20260507121725 15 230 3.2 12.9 0.00 0.00 0.00 54 1012.9
20260507121720 15 190 4.8 12.9 0.00 0.00 0.00 54 1013.0
20260507121024 15 190 4.8 12.9 0.00 0.00 0.00 54 1013.0
20260507120325 15 183 4.8 19.3 0.00 0.00 0.00 54 1013.1
20260507115625 15 136 6.4 19.3 0.00 0.00 0.00 53 1013.1
20260507114925 14 178 6.4 17.7 0.00 0.00 0.00 56 1013.1
20260507114225 14 161 4.8 16.1 0.00 0.00 0.00 56 1013.1
20260507113525 14 198 4.8 17.7 0.00 0.00 0.00 57 1013.2
20260507112825 13 227 0.0 12.9 0.00 0.00 0.00 61 1013.3
20260507112522 13 132 1.6 0.0 0.00 0.00 0.00 64 1013.3
20260507112125 13 132 1.6 0.0 0.00 0.00 0.00 64 1013.3
20260507111425 13 164 1.6 8.0 0.00 0.00 0.00 69 1013.3
20260507110725 13 168 1.6 8.0 0.00 0.00 0.00 69 1013.4
20260507110025 12 169 1.6 8.0 0.00 0.00 0.00 70 1013.4
20260507105325 12 198 1.6 8.0 0.00 0.00 0.00 71 1013.5
20260507104625 12 187 1.6 6.4 0.00 0.00 0.00 72 1013.6
20260507103925 12 202 1.6 3.2 0.00 0.00 0.00 73 1013.6
20260507103225 11 115 1.6 3.2 0.00 0.00 0.00 73 1013.6
20260507102525 11 201 1.6 6.4 0.00 0.00 0.00 75 1013.7
20260507101825 11 192 3.2 11.3 0.00 0.00 0.00 75 1013.8
20260507101125 11 173 1.6 6.4 0.00 0.00 0.00 77 1013.8